STARLINK-5025 (53920 NORAD) Tracking and Keplerian Element Data

This shows tracking and keplerian element data for the satellite.

Feedback or suggestion? Click here.




ElementValue
Catalog53920
NameSTARLINK-5025
Epoch Orbit945
Epoch Day325.25001157
Epoch Year2022
RAAN329.4888
Inclination53.2142
Eccentricity0.0004359
Argument of Perigee2.1533
Mean Anonmoly106.3223
Mean Motion15.7314357
Decay Rate0.00022671
L11 53920U 22119AL 22325.25001157 .00022671 00000+0 16586-3 0 9995
L22 53920 53.2142 329.4888 0004359 2.1533 106.3223 15.73143570 9456



Live tracking and technical data element details for STARLINK-5025 (NORAD 53920). STARLINK-5025 can be tracked NOW for your location showing map with azimuth and elevation plus other details from your city location.







IsCatalogInMostPopularTable: catalog: 53920, numindb: -1

Insert: records affected: 1


GetName: 53920 STARLINK-5025

Hit Count: inserted at: Mon, 28 Nov 2022 21:06:19 GMT